Location: Triton
(47.6048°N, 122.9899°W)
Time: 15:59:19
(UTC+00:00)

ARIANE 6 FM1 Upper Stage - Pass Details

Date: 14 February 2026
Orbit: 523 x 607 km, 62.0° (Epoch: 8 March)

Event Time Altitude Azimuth Distance (km) Brightness Sun altitude
Rises 04:53:44 0° 310° (NW) 2,659 7.0 -34.1°
Reaches altitude 10° 04:56:04 10° 300° (WNW) 1,768 6.0 -34.5°
Enters shadow 04:56:47 14° 294° (WNW) 1,519 5.6 -34.6°
